Year,Month,Day,Hour,Minute,Value (Times are PST for temperature in C)
2015,03,17,11,56,10.90
2015,03,17,11,57,10.90
2015,03,17,11,58,11.10
2015,03,17,11,59,11.10
2015,03,17,12,00,11.20
2015,03,17,12,01,11.20
2015,03,17,12,02,11.20
2015,03,17,12,03,11.20
2015,03,17,12,04,11.30
2015,03,17,12,05,11.30
2015,03,17,12,06,11.40
2015,03,17,12,07,11.40
2015,03,17,12,08,11.60
2015,03,17,12,09,11.70
2015,03,17,12,10,11.80
2015,03,17,12,11,11.80
2015,03,17,12,12,11.80
2015,03,17,12,13,11.80
2015,03,17,12,14,11.90
2015,03,17,12,15,11.90
2015,03,17,12,16,11.90
2015,03,17,12,17,11.90
2015,03,17,12,18,12.00
2015,03,17,12,19,12.00
2015,03,17,12,20,12.00
2015,03,17,12,21,12.00
2015,03,17,12,22,12.00
2015,03,17,12,23,12.00
2015,03,17,12,24,11.90
2015,03,17,12,25,11.80
2015,03,17,12,26,11.80
2015,03,17,12,27,11.90
2015,03,17,12,28,11.90
2015,03,17,12,29,12.00
2015,03,17,12,30,12.00
2015,03,17,12,31,12.10
2015,03,17,12,32,12.10
2015,03,17,12,33,12.10
2015,03,17,12,34,12.10
2015,03,17,12,35,12.10
2015,03,17,12,36,12.10
2015,03,17,12,37,12.00
2015,03,17,12,38,12.00
2015,03,17,12,39,11.90
2015,03,17,12,40,11.80
2015,03,17,12,41,11.80
2015,03,17,12,42,11.80
2015,03,17,12,43,11.80
2015,03,17,12,44,11.80
2015,03,17,12,45,11.80
2015,03,17,12,46,11.80
2015,03,17,12,47,11.90
2015,03,17,12,48,12.00
2015,03,17,12,49,12.00
2015,03,17,12,50,12.00
2015,03,17,12,51,12.10
2015,03,17,12,52,12.10
2015,03,17,12,53,12.10
2015,03,17,12,54,12.10
2015,03,17,12,55,12.10
2015,03,17,12,56,12.10
2015,03,17,12,57,12.00
2015,03,17,12,58,12.00
2015,03,17,12,59,12.00
2015,03,17,13,00,12.10
2015,03,17,13,01,12.10
2015,03,17,13,02,12.30
2015,03,17,13,03,12.40
2015,03,17,13,04,12.60
2015,03,17,13,05,12.70
2015,03,17,13,06,12.90
2015,03,17,13,07,13.10
2015,03,17,13,08,13.20
2015,03,17,13,09,13.20
2015,03,17,13,10,13.20
2015,03,17,13,11,13.30
2015,03,17,13,12,13.20
2015,03,17,13,13,13.20
2015,03,17,13,14,13.20
2015,03,17,13,15,13.10
2015,03,17,13,16,13.10
2015,03,17,13,17,13.00
2015,03,17,13,18,13.00
2015,03,17,13,19,13.00
2015,03,17,13,20,13.00
2015,03,17,13,21,13.00
2015,03,17,13,22,13.00
2015,03,17,13,23,13.00
2015,03,17,13,24,13.00
2015,03,17,13,25,12.90
2015,03,17,13,26,12.80
2015,03,17,13,27,12.80
2015,03,17,13,28,12.70
2015,03,17,13,29,12.60
2015,03,17,13,30,12.50
2015,03,17,13,31,12.40
2015,03,17,13,32,12.30
2015,03,17,13,33,12.10
2015,03,17,13,34,12.00
2015,03,17,13,35,12.00
2015,03,17,13,36,11.90
2015,03,17,13,37,11.80
2015,03,17,13,38,11.80
2015,03,17,13,39,11.80
2015,03,17,13,40,11.80
2015,03,17,13,41,11.70
2015,03,17,13,42,11.70
2015,03,17,13,43,11.60
2015,03,17,13,44,11.60
2015,03,17,13,45,11.60
2015,03,17,13,46,11.60
2015,03,17,13,47,11.60
2015,03,17,13,48,11.40
2015,03,17,13,49,11.50
2015,03,17,13,50,11.60
2015,03,17,13,51,11.60
2015,03,17,13,52,11.60
2015,03,17,13,53,11.70
2015,03,17,13,54,11.80
2015,03,17,13,55,11.80
2015,03,17,13,56,11.90
2015,03,17,13,57,11.90
2015,03,17,13,58,12.00
2015,03,17,13,59,12.10
2015,03,17,14,00,12.10
2015,03,17,14,01,12.20
2015,03,17,14,02,12.30
2015,03,17,14,03,12.30
2015,03,17,14,04,12.40
2015,03,17,14,05,12.50
2015,03,17,14,06,12.70
2015,03,17,14,07,12.80
2015,03,17,14,08,12.90
2015,03,17,14,09,13.00
2015,03,17,14,10,13.10
2015,03,17,14,11,13.10
2015,03,17,14,12,13.20
2015,03,17,14,13,13.30
2015,03,17,14,14,13.40
2015,03,17,14,15,13.40
2015,03,17,14,16,13.50
2015,03,17,14,17,13.50
2015,03,17,14,18,13.60
2015,03,17,14,19,13.60
2015,03,17,14,20,13.70
2015,03,17,14,21,13.80
2015,03,17,14,22,13.80
2015,03,17,14,23,13.80
2015,03,17,14,24,13.90
2015,03,17,14,25,14.00
2015,03,17,14,26,14.10
2015,03,17,14,27,14.20
2015,03,17,14,28,14.20
2015,03,17,14,29,14.30
2015,03,17,14,30,14.30
2015,03,17,14,31,14.40
2015,03,17,14,32,14.40
2015,03,17,14,33,14.40
2015,03,17,14,34,14.20
2015,03,17,14,35,14.20
2015,03,17,14,36,14.10
2015,03,17,14,37,14.10
2015,03,17,14,38,14.00
2015,03,17,14,39,14.00
2015,03,17,14,40,14.10
2015,03,17,14,41,14.00
2015,03,17,14,42,14.00
2015,03,17,14,43,13.90
2015,03,17,14,44,13.90
2015,03,17,14,45,13.70
2015,03,17,14,46,13.60
2015,03,17,14,47,13.60
2015,03,17,14,48,13.50
2015,03,17,14,49,13.50
2015,03,17,14,50,13.40
2015,03,17,14,51,13.30
2015,03,17,14,52,13.30
2015,03,17,14,53,13.20
2015,03,17,14,54,13.20
2015,03,17,14,55,13.20
2015,03,17,14,56,13.20
2015,03,17,14,57,13.20
2015,03,17,14,58,13.20
2015,03,17,14,59,13.20
2015,03,17,15,00,13.30
2015,03,17,15,01,13.30
2015,03,17,15,02,13.30
2015,03,17,15,03,13.20
2015,03,17,15,04,13.20
2015,03,17,15,05,13.20
2015,03,17,15,06,13.20
2015,03,17,15,07,13.20
2015,03,17,15,08,13.30
2015,03,17,15,09,13.30
2015,03,17,15,10,13.30
2015,03,17,15,11,13.20
2015,03,17,15,12,13.20
2015,03,17,15,13,13.20
2015,03,17,15,14,13.20
2015,03,17,15,15,13.20
2015,03,17,15,16,13.10
2015,03,17,15,17,13.10
2015,03,17,15,18,13.10
2015,03,17,15,19,13.10
2015,03,17,15,20,13.00
2015,03,17,15,21,13.00
2015,03,17,15,22,13.00
2015,03,17,15,23,13.00
2015,03,17,15,24,13.00
2015,03,17,15,25,12.90
2015,03,17,15,26,12.90
2015,03,17,15,27,12.90
2015,03,17,15,28,12.90
2015,03,17,15,29,12.90
2015,03,17,15,30,12.90
2015,03,17,15,31,12.80
2015,03,17,15,32,12.80
2015,03,17,15,33,12.80
2015,03,17,15,34,12.80
2015,03,17,15,35,12.80
2015,03,17,15,36,12.80
2015,03,17,15,37,12.80
2015,03,17,15,38,12.80
2015,03,17,15,39,12.80
2015,03,17,15,40,12.80
2015,03,17,15,41,12.80
2015,03,17,15,42,12.80
2015,03,17,15,43,12.80
2015,03,17,15,44,12.70
2015,03,17,15,45,12.60
2015,03,17,15,46,12.60
2015,03,17,15,47,12.50
2015,03,17,15,48,12.50
2015,03,17,15,49,12.30
2015,03,17,15,50,12.20
2015,03,17,15,51,12.10
2015,03,17,15,52,12.10
2015,03,17,15,53,12.00
2015,03,17,15,54,12.00
2015,03,17,15,55,12.00
2015,03,17,15,56,12.00
2015,03,17,15,57,12.00
2015,03,17,15,58,12.00
2015,03,17,15,59,12.10
2015,03,17,16,00,12.10
2015,03,17,16,01,12.10
2015,03,17,16,02,12.20
2015,03,17,16,03,12.10
2015,03,17,16,04,12.10
2015,03,17,16,05,12.10
2015,03,17,16,06,12.10
2015,03,17,16,07,12.10
2015,03,17,16,08,12.10
2015,03,17,16,09,12.00
2015,03,17,16,10,12.00
2015,03,17,16,11,12.00
2015,03,17,16,12,11.90
2015,03,17,16,13,11.90
2015,03,17,16,14,11.90
2015,03,17,16,15,11.80
2015,03,17,16,16,11.80
2015,03,17,16,17,11.80
2015,03,17,16,18,11.70
2015,03,17,16,19,11.70
2015,03,17,16,20,11.60
2015,03,17,16,21,11.60
2015,03,17,16,22,11.60
2015,03,17,16,23,11.70
2015,03,17,16,24,11.70
2015,03,17,16,25,11.70
2015,03,17,16,26,11.70
2015,03,17,16,27,11.70
2015,03,17,16,28,11.70
2015,03,17,16,29,11.70
2015,03,17,16,30,11.80
2015,03,17,16,31,11.80
2015,03,17,16,32,11.80
2015,03,17,16,33,11.80
2015,03,17,16,34,11.80
2015,03,17,16,35,11.80
2015,03,17,16,36,11.80
2015,03,17,16,37,11.80
2015,03,17,16,38,11.80
2015,03,17,16,39,11.80
2015,03,17,16,40,11.80
2015,03,17,16,41,11.70
2015,03,17,16,42,11.60
2015,03,17,16,43,11.60
2015,03,17,16,44,11.60
2015,03,17,16,45,11.50
2015,03,17,16,46,11.40
2015,03,17,16,47,11.40
2015,03,17,16,48,11.30
2015,03,17,16,49,11.20
2015,03,17,16,50,11.20
2015,03,17,16,51,11.20
2015,03,17,16,52,11.20
2015,03,17,16,53,11.10
2015,03,17,16,54,11.10
2015,03,17,16,55,11.10
2015,03,17,16,56,11.10
2015,03,17,16,57,11.10
2015,03,17,16,58,11.10
2015,03,17,16,59,11.10
2015,03,17,17,00,11.10
2015,03,17,17,01,11.10
2015,03,17,17,02,11.10
2015,03,17,17,03,11.10
2015,03,17,17,04,11.10
2015,03,17,17,05,11.10
2015,03,17,17,06,11.10
2015,03,17,17,07,11.10
2015,03,17,17,08,11.10
2015,03,17,17,09,11.10
2015,03,17,17,10,11.10
2015,03,17,17,11,11.10
2015,03,17,17,12,11.10
2015,03,17,17,13,11.10
2015,03,17,17,14,11.10
2015,03,17,17,15,11.10
2015,03,17,17,16,11.10
2015,03,17,17,17,11.10
2015,03,17,17,18,11.10
2015,03,17,17,19,11.10
2015,03,17,17,20,11.10
2015,03,17,17,21,11.10
2015,03,17,17,22,11.10
2015,03,17,17,23,11.10
2015,03,17,17,24,11.00
2015,03,17,17,25,10.90
2015,03,17,17,26,10.90
2015,03,17,17,27,10.90
2015,03,17,17,28,10.90
2015,03,17,17,29,10.90
2015,03,17,17,30,10.90
2015,03,17,17,31,10.90
2015,03,17,17,32,10.90
2015,03,17,17,33,10.90
2015,03,17,17,34,10.90
2015,03,17,17,35,10.90
2015,03,17,17,36,10.90
2015,03,17,17,37,10.80
2015,03,17,17,38,10.80
2015,03,17,17,39,10.80
2015,03,17,17,40,10.80
2015,03,17,17,41,10.70
2015,03,17,17,42,10.70
2015,03,17,17,43,10.70
2015,03,17,17,44,10.70
2015,03,17,17,45,10.70
2015,03,17,17,46,10.60
2015,03,17,17,47,10.60
2015,03,17,17,48,10.60
2015,03,17,17,49,10.60
2015,03,17,17,50,10.60
2015,03,17,17,51,10.60
2015,03,17,17,52,10.60
2015,03,17,17,53,10.60
2015,03,17,17,54,10.60
2015,03,17,17,55,10.40
2015,03,17,17,56,10.40
2015,03,17,17,57,10.40
2015,03,17,17,58,10.40
2015,03,17,17,59,10.40
2015,03,17,18,00,10.40
2015,03,17,18,01,10.40
2015,03,17,18,02,10.40
2015,03,17,18,03,10.40
2015,03,17,18,04,10.40
2015,03,17,18,05,10.40
2015,03,17,18,06,10.40
2015,03,17,18,07,10.40
2015,03,17,18,08,10.30
2015,03,17,18,09,10.30
2015,03,17,18,10,10.30
2015,03,17,18,11,10.30
2015,03,17,18,12,10.30
2015,03,17,18,13,10.20
2015,03,17,18,14,10.20
2015,03,17,18,15,10.20
2015,03,17,18,16,10.20
2015,03,17,18,17,10.20
2015,03,17,18,18,10.10
2015,03,17,18,19,10.10
2015,03,17,18,20,10.10
2015,03,17,18,21,10.10
2015,03,17,18,22,10.10
2015,03,17,18,23,10.10
2015,03,17,18,24,10.10
2015,03,17,18,25,10.10
2015,03,17,18,26,10.10
2015,03,17,18,27,10.10
2015,03,17,18,28,10.10
2015,03,17,18,29,10.10
2015,03,17,18,30,10.10
2015,03,17,18,31,10.10
2015,03,17,18,32,10.10
2015,03,17,18,33,9.90
2015,03,17,18,34,9.90
2015,03,17,18,35,10.00
2015,03,17,18,36,9.90
2015,03,17,18,37,9.90
2015,03,17,18,38,9.90
2015,03,17,18,39,9.90
2015,03,17,18,40,9.90
2015,03,17,18,41,9.90
2015,03,17,18,42,9.90
2015,03,17,18,43,9.90
2015,03,17,18,44,9.90
2015,03,17,18,45,9.90
2015,03,17,18,46,9.80
2015,03,17,18,47,9.80
2015,03,17,18,48,9.80
2015,03,17,18,49,9.80
2015,03,17,18,50,9.80
2015,03,17,18,51,9.70
2015,03,17,18,52,9.70
2015,03,17,18,53,9.70
2015,03,17,18,54,9.70
2015,03,17,18,55,9.70
2015,03,17,18,56,9.70
2015,03,17,18,57,9.70
2015,03,17,18,58,9.70
2015,03,17,18,59,9.70
2015,03,17,19,00,9.70
2015,03,17,19,01,9.70
2015,03,17,19,02,9.70
2015,03,17,19,03,9.70
2015,03,17,19,04,9.70
2015,03,17,19,05,9.70
2015,03,17,19,06,9.70
2015,03,17,19,07,9.70
2015,03,17,19,08,9.70
2015,03,17,19,09,9.70
